Location: Worth Mountain WMA
(34.9569°N, 81.4819°W)
Time: 01:38:06
(UTC-05:00)

Amateur Radio Satellites - All Passes

Search period start: 24 November 2014 01:08
Search period end: 25 November 2014 01:08
Location: Worth Mountain WMA, 34.9569°N, 81.4819°W

Satellite Date Start Highest point End Downlink Frequencies (MHz)
Time Altitude Azimuth
ITUPSAT 1 24 Nov 01:09:41 01:14:29 83° 76° (ENE) 01:19:19 437.325
ISS 24 Nov 01:10:46 01:13:22 21° 327° (NNW) 01:16:00 145.825
MaSat-1 24 Nov 01:14:52 01:16:48 23° 64° (ENE) 01:18:48 437.345
SWISSCUBE 24 Nov 01:21:40 01:26:25 66° 258° (WSW) 01:31:13 437.505
KKS-1 24 Nov 01:22:39 01:26:01 21° 69° (ENE) 01:29:23 437.445
JUGNU 24 Nov 01:27:43 01:31:27 17° 174° (S) 01:35:12 437.505
SRMSAT 24 Nov 01:35:05 01:37:34 13° 167° (SSE) 01:40:04 437.500
AUBIESAT-1 24 Nov 01:44:38 01:47:08 16° 263° (W) 01:49:47 437.475
M-CUBED/EXP-1 PRIME 24 Nov 01:48:50 01:50:46 13° 264° (W) 01:52:47 437.505
ITAMSAT 1 24 Nov 01:51:40 01:55:48 24° 96° (E) 01:59:54 435.822/435.867
BEESAT 24 Nov 01:53:55 01:58:10 32° 262° (W) 02:02:27 436.000
Gurwin Techsat 1B 24 Nov 02:10:10 02:14:05 21° 94° (E) 02:17:59 435.225
STARS 24 Nov 02:22:15 02:26:38 69° 76° (ENE) 02:31:01 437.465
HORYU 2 24 Nov 02:33:59 02:35:56 13° 93° (E) 02:37:53 437.375
YUBILEINY 24 Nov 02:41:00 02:49:34 59° 91° (E) 02:58:08 435.215
Oscar 19 24 Nov 02:42:40 02:47:23 37° 289° (WNW) 02:52:05 437.125/150
KKS-1 24 Nov 02:58:35 03:02:28 29° 263° (W) 03:06:22 437.445
RS-15 24 Nov 03:05:34 03:16:28 56° 249° (WSW) 03:27:52 29.354- 29.394
JUGNU 24 Nov 03:15:56 03:19:46 18° 185° (S) 03:23:37 437.505
SRMSAT 24 Nov 03:22:05 03:26:01 18° 177° (S) 03:29:58 437.500
SO-50 24 Nov 03:24:08 03:27:31 21° 110° (ESE) 03:30:58 436.795
ITAMSAT 1 24 Nov 03:30:39 03:35:17 34° 290° (WNW) 03:39:54 435.822/435.867
MOZHAYETS 4 24 Nov 03:47:17 03:50:36 20° 68° (ENE) 03:53:56
Gurwin Techsat 1B 24 Nov 03:49:12 03:54:09 41° 289° (WNW) 03:59:05 435.225
HORYU 2 24 Nov 04:08:31 04:12:50 49° 286° (WNW) 04:17:10 437.375
AO-7 24 Nov 04:29:29 04:37:46 62° 104° (ESE) 04:46:00 29.400- 29.500
YUBILEINY 24 Nov 04:39:44 04:46:48 27° 289° (WNW) 04:53:54 435.215
JAS-2 24 Nov 04:46:36 04:52:21 27° 92° (E) 04:57:33 435.910
SO-50 24 Nov 05:03:43 05:07:48 34° 306° (NW) 05:12:01 436.795
JUGNU 24 Nov 05:06:09 05:08:03 12° 194° (SSW) 05:09:57 437.505
BEESAT 3 24 Nov 05:06:38 05:09:27 17° 50° (NE) 05:12:14 437.485
SRMSAT 24 Nov 05:10:51 05:14:30 17° 187° (S) 05:18:09 437.500
PCSat 24 Nov 05:13:12 05:18:10 35° 57° (ENE) 05:23:06 145.827
BEESAT 2 24 Nov 05:19:55 05:23:09 21° 52° (NE) 05:26:21 435.950
CUBESAT XI-V 24 Nov 05:23:03 05:25:43 15° 66° (ENE) 05:28:23 437.345
MOZHAYETS 4 24 Nov 05:23:27 05:27:34 33° 263° (W) 05:31:44
AIST 2 24 Nov 05:44:36 05:47:46 20° 51° (NE) 05:50:54 435.215
PRISM 24 Nov 05:46:35 05:50:46 82° 76° (ENE) 05:55:00 437.425
Cubesat XI-IV 24 Nov 05:52:46 05:57:00 24° 95° (E) 06:01:12 437.490
ISS 24 Nov 06:05:31 06:07:19 14° 28° (NNE) 06:09:06 145.825
AO-7 24 Nov 06:23:16 06:29:56 28° 300° (WNW) 06:36:37 29.400- 29.500
O/OREOS (USA 219) 24 Nov 06:23:26 06:27:55 72° 108° (ESE) 06:32:23 437.305
JAS-2 24 Nov 06:30:56 06:37:35 44° 291° (WNW) 06:43:31 435.910
CUTE-I 24 Nov 06:34:00 06:39:16 61° 101° (ESE) 06:44:29 437.470
STRAND 1 24 Nov 06:36:37 06:41:47 87° 256° (WSW) 06:46:57 437.568
BEESAT 3 24 Nov 06:43:55 06:47:50 40° 246° (WSW) 06:51:42 437.485
PCSat 24 Nov 06:56:54 07:01:23 27° 253° (WSW) 07:05:50 145.827
BEESAT 2 24 Nov 06:57:45 07:01:28 31° 247° (WSW) 07:05:07 435.950
CUBESAT XI-V 24 Nov 06:58:10 07:02:42 48° 261° (W) 07:07:17 437.345
AIST 2 24 Nov 07:22:34 07:26:30 36° 247° (WSW) 07:30:22 435.215
Cubesat XI-IV 24 Nov 07:32:17 07:37:07 36° 290° (WNW) 07:41:54 437.490
AIST 1 24 Nov 07:36:15 07:40:38 77° 265° (W) 07:44:57
ISS 24 Nov 07:41:00 07:44:18 75° 224° (SW) 07:47:35 145.825
CUTE-I 24 Nov 08:15:52 08:18:46 15° 296° (WNW) 08:21:40 437.470
CUTE 1.7 & AOD 2 24 Nov 08:19:54 08:21:58 13° 93° (E) 08:24:02 437.475
GONETS M04 24 Nov 08:30:40 08:39:18 66° 92° (E) 08:48:01
GOMX 1 24 Nov 08:45:30 08:48:17 17° 95° (E) 08:51:07 467.674
SEEDS 24 Nov 08:54:08 08:57:53 29° 97° (E) 09:01:37 437.485
BRITE-PL 24 Nov 09:02:48 09:06:43 40° 99° (E) 09:10:40 437.365/2234.400
HO-68 24 Nov 09:02:53 09:09:52 53° 101° (ESE) 09:16:47 435.675
CINEMA 3 24 Nov 09:05:00 09:06:51 13° 93° (E) 09:08:43 145.822/145.860
DX 1 24 Nov 09:10:19 09:12:35 14° 94° (E) 09:14:50 434.975-435.025
TIGRISAT 24 Nov 09:12:25 09:13:52 12° 66° (ENE) 09:15:18 435.000
AAUSAT CUBESAT 2 24 Nov 09:14:57 09:18:55 38° 98° (E) 09:22:52 437.432
CANX-2 24 Nov 09:18:51 09:23:09 79° 102° (ESE) 09:27:27 2200.000
UNISAT 6 24 Nov 09:23:35 09:26:15 16° 68° (ENE) 09:28:55 437.425
NANOSAT C BR1 24 Nov 09:26:47 09:28:21 12° 66° (ENE) 09:29:56 145.865
COMPASS 1 24 Nov 09:28:37 09:32:51 67° 101° (E) 09:37:04 437.405
DELFI C3 24 Nov 09:30:52 09:34:12 23° 96° (E) 09:37:31 145.870
QB50P1 24 Nov 09:35:23 09:37:52 15° 67° (ENE) 09:40:21 145.935-145.965
ZACube-1 24 Nov 09:36:57 09:39:01 13° 93° (E) 09:41:06 437.345
DOVE 4 24 Nov 09:49:26 09:53:37 78° 102° (ESE) 09:57:55 437.250
ANTELSAT 24 Nov 09:50:44 09:54:35 33° 72° (ENE) 09:58:26 437.575/2403.000
CUTE 1.7 & AOD 2 24 Nov 09:54:00 09:58:04 42° 286° (WNW) 10:02:07 437.475
BUGSAT 1 24 Nov 09:55:39 09:58:55 22° 70° (ENE) 10:02:11 437.445
AISAT 24 Nov 09:56:06 09:58:27 14° 93° (E) 10:00:47 437.250
POPSAT HIP 1 24 Nov 09:58:35 10:02:14 28° 71° (ENE) 10:05:53 437.405
FUNcube-1 24 Nov 10:11:00 10:14:52 34° 98° (E) 10:18:48 145.935
UKube-1 24 Nov 10:11:06 10:15:27 75° 102° (ESE) 10:19:46 .
GOMX 1 24 Nov 10:22:50 10:26:27 29° 288° (WNW) 10:30:08 467.674
Oscar 11 24 Nov 10:23:58 10:28:16 64° 284° (WNW) 10:32:34 145.826/435.025
CUBEBUG 2 24 Nov 10:27:24 10:31:39 79° 102° (ESE) 10:36:00 437.445
GONETS M04 24 Nov 10:30:01 10:36:43 24° 290° (WNW) 10:43:30
POLYITAN 1 24 Nov 10:30:13 10:34:28 70° 76° (ENE) 10:38:43 437.675
SEEDS 24 Nov 10:30:26 10:33:29 19° 291° (WNW) 10:36:32 437.485
UWE-3 24 Nov 10:31:48 10:36:03 76° 102° (ESE) 10:40:23 435.000/436.395/437.385
QB50P2 24 Nov 10:33:02 10:37:18 76° 76° (ENE) 10:41:34 145.880/145.840
CINEMA 3 24 Nov 10:40:14 10:44:13 43° 286° (WNW) 10:48:19 145.822/145.860
DUCHIFAT 1 24 Nov 10:40:23 10:44:39 89° 257° (WSW) 10:48:56 145.980
BRITE-PL 24 Nov 10:42:59 10:44:54 13° 293° (WNW) 10:46:48 437.365/2234.400
DX 1 24 Nov 10:44:54 10:48:59 41° 287° (WNW) 10:53:03 434.975-435.025
TIGRISAT 24 Nov 10:46:00 10:50:09 51° 260° (W) 10:54:18 435.000
HO-68 24 Nov 10:51:23 10:57:07 27° 297° (WNW) 11:02:50 435.675
AAUSAT CUBESAT 2 24 Nov 10:51:50 10:54:15 15° 292° (WNW) 10:56:39 437.432
ESTCUBE 1 24 Nov 10:57:54 11:01:44 26° 96° (E) 11:05:31 437.505/2401.250
UNISAT 6 24 Nov 10:58:50 11:02:45 35° 262° (W) 11:06:41 437.425
NANOSAT C BR1 24 Nov 10:59:38 11:03:46 50° 260° (W) 11:07:55 145.865
VELOX 1 24 Nov 11:05:49 11:10:15 86° 284° (WNW) 11:14:39 145.980
DELFI C3 24 Nov 11:06:08 11:09:23 23° 290° (WNW) 11:12:37 145.870
HUMSAT D 24 Nov 11:09:15 11:13:25 76° 283° (WNW) 11:17:36 437.325/437.525
QB50P1 24 Nov 11:09:27 11:13:26 38° 261° (W) 11:17:25 145.935-145.965
50 SAT 24 Nov 11:11:09 11:15:13 87° 283° (WNW) 11:19:18 437.505
ZACube-1 24 Nov 11:11:33 11:15:32 41° 286° (WNW) 11:19:35 437.345
ANTELSAT 24 Nov 11:28:46 11:31:28 16° 266° (W) 11:34:10 437.575/2403.000
BUGSAT 1 24 Nov 11:30:39 11:34:15 26° 263° (W) 11:37:51 437.445
AISAT 24 Nov 11:31:05 11:35:15 42° 287° (WNW) 11:39:24 437.250
POPSAT HIP 1 24 Nov 11:34:59 11:38:07 20° 265° (W) 11:41:15 437.405
TISAT 1 24 Nov 11:43:55 11:46:55 19° 95° (E) 11:49:55 437.305
SPROUT 24 Nov 11:47:42 11:50:43 19° 95° (E) 11:53:43 437.525
FUNcube-1 24 Nov 11:48:16 11:50:57 17° 291° (WNW) 11:53:41 145.935
CUBEBUG 1 24 Nov 11:51:01 11:55:23 75° 284° (WNW) 11:59:42 437.445
SO-50 24 Nov 11:59:44 12:01:21 11° 44° (NE) 12:02:58 436.795
Oscar 19 24 Nov 12:18:00 12:21:58 23° 68° (ENE) 12:25:58 437.125/150
ESTCUBE 1 24 Nov 12:34:49 12:38:28 24° 291° (WNW) 12:42:05 437.505/2401.250
YUBILEINY 24 Nov 12:56:23 13:03:03 24° 70° (ENE) 13:09:39 435.215
ITAMSAT 1 24 Nov 13:06:31 13:10:51 27° 68° (ENE) 13:15:10 435.822/435.867
ITUPSAT 1 24 Nov 13:14:24 13:18:31 28° 97° (E) 13:22:36 437.325
TISAT 1 24 Nov 13:19:08 13:22:45 28° 289° (WNW) 13:26:21 437.305
SPROUT 24 Nov 13:23:05 13:26:49 30° 289° (WNW) 13:30:32 437.525
SWISSCUBE 24 Nov 13:25:46 13:30:18 41° 99° (E) 13:34:48 437.505
Gurwin Techsat 1B 24 Nov 13:28:07 13:32:20 25° 68° (ENE) 13:36:34 435.225
AUBIESAT-1 24 Nov 13:28:30 13:33:18 52° 104° (ESE) 13:37:58 437.475
M-CUBED/EXP-1 PRIME 24 Nov 13:32:20 13:37:15 64° 105° (ESE) 13:42:02 437.505
SO-50 24 Nov 13:37:41 13:42:36 86° 62° (ENE) 13:47:30 436.795
AO-7 24 Nov 13:39:25 13:41:37 11° 49° (NE) 13:43:49 29.400- 29.500
VERMONT LUNAR 24 Nov 13:49:19 13:51:31 16° 142° (SE) 13:53:44 437.305
Oscar 19 24 Nov 13:56:27 14:01:05 35° 262° (W) 14:05:44 437.125/150
BEESAT 24 Nov 13:57:03 14:01:52 85° 103° (ESE) 14:06:39 436.000
CUSAT 1 24 Nov 13:57:50 14:00:12 23° 281° (W) 14:02:23 437.405
DANDE 24 Nov 14:16:10 14:18:11 16° 281° (W) 14:20:02 436.750
STARS 24 Nov 14:17:01 14:19:49 17° 94° (E) 14:22:37 437.465
MaSat-1 24 Nov 14:41:41 14:43:07 13° 107° (ESE) 14:44:30 437.345
ITAMSAT 1 24 Nov 14:45:35 14:50:10 31° 263° (W) 14:54:47 435.822/435.867
YUBILEINY 24 Nov 14:51:52 15:00:25 64° 268° (W) 15:08:56 435.215
ITUPSAT 1 24 Nov 14:52:20 14:56:16 26° 291° (WNW) 15:00:11 437.325
KKS-1 24 Nov 14:52:34 14:57:00 69° 102° (ESE) 15:01:24 437.445
JAS-2 24 Nov 14:58:42 15:00:19 11° 54° (NE) 15:01:56 435.910
HORYU 2 24 Nov 15:03:38 15:08:03 81° 257° (WSW) 15:12:30 437.375
SWISSCUBE 24 Nov 15:04:38 15:07:48 18° 294° (WNW) 15:10:59 437.505
AUBIESAT-1 24 Nov 15:04:43 15:07:48 17° 299° (WNW) 15:10:51 437.475
Gurwin Techsat 1B 24 Nov 15:07:14 15:12:04 36° 262° (W) 15:16:56 435.225
PHONESAT 2.4 24 Nov 15:07:49 15:11:21 44° 150° (SSE) 15:14:55 2401.200-2431.200
M-CUBED/EXP-1 PRIME 24 Nov 15:09:07 15:11:42 14° 300° (WNW) 15:14:15 437.505
RS-15 24 Nov 15:14:20 15:23:35 33° 105° (ESE) 15:32:42 29.354- 29.394
AO-7 24 Nov 15:24:37 15:32:43 62° 68° (ENE) 15:40:52 29.400- 29.500
VERMONT LUNAR 24 Nov 15:26:01 15:29:38 84° 156° (SSE) 15:33:17 437.305
STARS 24 Nov 15:52:23 15:56:23 36° 288° (WNW) 16:00:23 437.465
MaSat-1 24 Nov 16:15:13 16:17:33 20° 297° (WNW) 16:19:44 437.345
JAS-2 24 Nov 16:36:22 16:43:42 62° 72° (ENE) 16:51:26 435.910
O/OREOS (USA 219) 24 Nov 16:36:39 16:41:08 79° 70° (ENE) 16:45:37 437.305
PHONESAT 2.4 24 Nov 16:46:34 16:50:10 48° 345° (NNW) 16:53:47 2401.200-2431.200
VERMONT LUNAR 24 Nov 17:04:58 17:08:21 36° 352° (N) 17:11:44 437.305
Cubesat XI-IV 24 Nov 17:11:35 17:16:10 30° 69° (ENE) 17:20:45 437.490
AO-7 24 Nov 17:19:25 17:25:52 25° 264° (W) 17:32:24 29.400- 29.500
MOZHAYETS 4 24 Nov 17:21:30 17:26:10 75° 102° (ESE) 17:30:48
RS-15 24 Nov 17:24:21 17:35:10 61° 304° (NW) 17:46:00 29.354- 29.394
PRISM 24 Nov 17:34:39 17:37:11 15° 94° (E) 17:39:42 437.425
CUTE-I 24 Nov 17:52:33 17:57:53 73° 75° (ENE) 18:03:14 437.470
JAS-2 24 Nov 18:23:14 18:29:04 25° 268° (W) 18:35:11 435.910
PHONESAT 2.4 24 Nov 18:26:00 18:29:25 33° 2° (N) 18:32:50 2401.200-2431.200
VERMONT LUNAR 24 Nov 18:43:54 18:47:19 37° 9° (N) 18:50:44 437.305
GONETS M04 24 Nov 18:45:59 18:53:10 27° 71° (ENE) 19:00:16
STRAND 1 24 Nov 18:50:52 18:55:41 41° 99° (E) 19:00:27 437.568
Cubesat XI-IV 24 Nov 18:51:28 18:56:08 30° 263° (W) 19:00:48 437.490
CUBESAT XI-V 24 Nov 18:58:23 19:02:58 54° 100° (E) 19:07:29 437.345
PRISM 24 Nov 19:08:57 19:12:50 35° 288° (WNW) 19:16:40 437.425
HO-68 24 Nov 19:28:37 19:34:31 29° 63° (ENE) 19:40:27 435.675
CUTE-I 24 Nov 19:36:48 19:38:24 11° 269° (W) 19:40:00 437.470
RS-15 24 Nov 19:43:32 19:50:24 18° 332° (NNW) 19:57:22 29.354- 29.394
SEEDS 24 Nov 19:44:59 19:47:16 15° 67° (ENE) 19:49:34 437.485
GOMX 1 24 Nov 19:51:07 19:54:04 16° 69° (ENE) 19:56:55 467.674
PCSat 24 Nov 19:51:10 19:56:29 64° 113° (ESE) 20:01:51 145.827
AIST 1 24 Nov 20:02:09 20:06:31 75° 95° (E) 20:10:56
AAUSAT CUBESAT 2 24 Nov 20:04:20 20:07:09 18° 69° (ENE) 20:09:58 437.432
PHONESAT 2.4 24 Nov 20:04:53 20:08:35 64° 19° (NNE) 20:12:16 2401.200-2431.200
CANX-2 24 Nov 20:09:06 20:12:56 36° 73° (ENE) 20:16:48 2200.000
BRITE-PL 24 Nov 20:10:07 20:14:50 38° 73° (ENE) 20:19:14 437.365/2234.400
COMPASS 1 24 Nov 20:17:39 20:21:16 29° 72° (ENE) 20:24:53 437.405
DELFI C3 24 Nov 20:19:40 20:20:09 10° 66° (ENE) 20:20:38 145.870
VERMONT LUNAR 24 Nov 20:22:22 20:26:00 75° 205° (SSW) 20:29:36 437.305
STRAND 1 24 Nov 20:30:53 20:34:32 20° 294° (WNW) 20:38:09 437.568
BEESAT 3 24 Nov 20:35:28 20:39:32 87° 118° (ESE) 20:43:42 437.485
CUBESAT XI-V 24 Nov 20:37:45 20:39:53 13° 295° (WNW) 20:42:01 437.345
GONETS M04 24 Nov 20:41:50 20:50:24 58° 269° (W) 20:58:54
CUTE 1.7 & AOD 2 24 Nov 20:43:33 20:47:45 88° 78° (ENE) 20:51:59 437.475
BEESAT 2 24 Nov 20:49:40 20:53:45 71° 300° (WNW) 20:57:55 435.950
DOVE 4 24 Nov 20:51:56 20:56:33 55° 75° (ENE) 21:00:54 437.250
UKube-1 24 Nov 21:03:10 21:07:15 41° 73° (ENE) 21:11:22 .
FUNcube-1 24 Nov 21:05:04 21:08:01 19° 69° (ENE) 21:10:57 145.935
HO-68 24 Nov 21:14:57 21:21:51 49° 259° (W) 21:28:47 435.675
Oscar 11 24 Nov 21:15:25 21:19:40 64° 76° (ENE) 21:23:56 145.826/435.025
AIST 2 24 Nov 21:17:27 21:21:39 75° 299° (WNW) 21:25:56 435.215
SEEDS 24 Nov 21:18:51 21:22:45 38° 262° (W) 21:26:41 437.485
CUBEBUG 2 24 Nov 21:22:58 21:27:03 43° 74° (ENE) 21:31:03 437.445
UWE-3 24 Nov 21:26:20 21:30:20 40° 74° (ENE) 21:34:15 435.000/436.395/437.385
GOMX 1 24 Nov 21:27:12 21:31:54 44° 261° (W) 21:36:19 467.674
PCSat 24 Nov 21:36:51 21:40:20 17° 310° (NW) 21:43:51 145.827
DX 1 24 Nov 21:36:56 21:41:19 75° 258° (WSW) 21:45:42 434.975-435.025
CINEMA 3 24 Nov 21:38:44 21:43:12 72° 258° (WSW) 21:47:30 145.822/145.860
AAUSAT CUBESAT 2 24 Nov 21:38:56 21:42:35 30° 263° (W) 21:46:16 437.432
PHONESAT 2.4 24 Nov 21:44:02 21:47:13 27° 214° (SW) 21:50:23 2401.200-2431.200
CANX-2 24 Nov 21:46:33 21:48:59 15° 267° (W) 21:51:26 2200.000
BRITE-PL 24 Nov 21:49:37 21:53:21 20° 264° (W) 21:56:54 437.365/2234.400
DELFI C3 24 Nov 21:50:59 21:54:56 53° 260° (W) 21:58:56 145.870
COMPASS 1 24 Nov 21:54:09 21:57:00 18° 266° (W) 21:59:53 437.405
ESTCUBE 1 24 Nov 21:55:28 21:58:29 18° 67° (ENE) 22:01:31 437.505/2401.250
50 SAT 24 Nov 21:57:10 22:00:54 37° 73° (ENE) 22:04:37 437.505
HUMSAT D 24 Nov 21:58:31 22:02:30 47° 74° (ENE) 22:06:28 437.325/437.525
VELOX 1 24 Nov 22:00:26 22:04:48 56° 74° (ENE) 22:09:12 145.980
VERMONT LUNAR 24 Nov 22:02:14 22:04:04 13° 219° (SW) 22:05:53 437.305
ZACube-1 24 Nov 22:04:21 22:08:36 81° 258° (WSW) 22:12:48 437.345
RS-15 24 Nov 22:05:50 22:09:41 12° 10° (N) 22:13:34 29.354- 29.394
POLYITAN 1 24 Nov 22:21:03 22:23:28 15° 94° (E) 22:25:53 437.675
QB50P2 24 Nov 22:23:29 22:26:06 16° 94° (E) 22:28:43 145.880/145.840
AISAT 24 Nov 22:25:42 22:30:11 72° 258° (WSW) 22:34:40 437.250
DUCHIFAT 1 24 Nov 22:30:09 22:33:09 19° 95° (E) 22:36:07 145.980
DOVE 4 24 Nov 22:32:58 22:34:30 11° 267° (W) 22:36:01 437.250
TISAT 1 24 Nov 22:36:07 22:36:51 10° 65° (ENE) 22:37:36 437.305
FUNcube-1 24 Nov 22:40:28 22:44:10 29° 263° (W) 22:47:50 145.935
TIGRISAT 24 Nov 22:40:55 22:45:06 40° 99° (E) 22:49:21 435.000
UKube-1 24 Nov 22:41:16 22:43:34 14° 266° (W) 22:45:53 .
SPROUT 24 Nov 22:41:31 22:42:16 10° 65° (ENE) 22:43:01 437.525
CUBEBUG 1 24 Nov 22:43:56 22:48:18 59° 75° (ENE) 22:52:41 437.445
ISS 24 Nov 22:44:52 22:47:04 17° 128° (SE) 22:49:17 145.825
NANOSAT C BR1 24 Nov 22:48:40 22:52:27 32° 98° (E) 22:56:13 145.865
UNISAT 6 24 Nov 22:53:37 22:58:01 58° 101° (E) 23:02:30 437.425
QB50P1 24 Nov 22:58:11 23:02:12 42° 99° (E) 23:06:11 145.935-145.965
CUBEBUG 2 24 Nov 23:02:02 23:03:55 13° 267° (W) 23:05:48 437.445
UWE-3 24 Nov 23:04:54 23:07:01 13° 267° (W) 23:09:06 435.000/436.395/437.385
DANDE 24 Nov 23:15:34 23:17:50 13° 77° (ENE) 23:20:22 436.750
BUGSAT 1 24 Nov 23:16:07 23:20:08 56° 100° (E) 23:24:05 437.445
ANTELSAT 24 Nov 23:22:13 23:26:38 65° 285° (WNW) 23:31:08 437.575/2403.000
POPSAT HIP 1 24 Nov 23:22:38 23:26:52 86° 102° (ESE) 23:31:05 437.405
JUGNU 24 Nov 23:26:25 23:28:15 11° 166° (SSE) 23:30:04 437.505
ESTCUBE 1 24 Nov 23:30:50 23:35:02 37° 262° (W) 23:39:17 437.505/2401.250
50 SAT 24 Nov 23:34:21 23:36:20 13° 267° (W) 23:38:19 437.505
HUMSAT D 24 Nov 23:37:36 23:38:32 11° 268° (W) 23:39:29 437.325/437.525
VELOX 1 24 Nov 23:40:35 23:41:41 11° 268° (W) 23:42:47 145.980
POLYITAN 1 24 Nov 23:55:39 23:59:32 36° 287° (WNW) 00:03:24 437.675
QB50P2 24 Nov 23:58:17 00:02:06 34° 288° (WNW) 00:05:55 145.880/145.840
DUCHIFAT 1 25 Nov 00:05:23 00:09:00 29° 289° (WNW) 00:12:38 145.980
TISAT 1 25 Nov 00:07:57 00:12:10 59° 259° (W) 00:16:23 437.305
SPROUT 25 Nov 00:13:33 00:17:49 60° 259° (W) 00:22:06 437.525
AUBIESAT-1 25 Nov 00:15:21 00:18:59 37° 67° (ENE) 00:22:58 437.475
RS-15 25 Nov 00:17:32 00:27:18 33° 44° (NE) 00:37:21 29.354- 29.394
ITUPSAT 1 25 Nov 00:18:37 00:22:23 23° 68° (ENE) 00:26:10 437.325
TIGRISAT 25 Nov 00:18:48 00:21:31 16° 292° (WNW) 00:24:17 435.000
M-CUBED/EXP-1 PRIME 25 Nov 00:19:30 00:23:15 46° 68° (ENE) 00:27:23 437.505
ISS 25 Nov 00:20:26 00:23:29 36° 323° (NW) 00:26:34 145.825
NANOSAT C BR1 25 Nov 00:25:16 00:28:05 18° 292° (WNW) 00:30:53 145.865
SWISSCUBE 25 Nov 00:29:29 00:33:46 33° 71° (ENE) 00:38:04 437.505
UNISAT 6 25 Nov 00:32:50 00:34:19 12° 294° (WNW) 00:35:50 437.425
QB50P1 25 Nov 00:35:35 00:37:42 14° 293° (WNW) 00:39:50 145.935-145.965
CUSAT 1 25 Nov 00:36:22 00:41:10 78° 263° (W) 00:47:39 437.405
DANDE 25 Nov 00:56:33 01:01:08 58° 263° (W) 01:07:19 436.750
